Regional Weather Roundup
Issued by NWS Grand Forks, ND

Home | Current Version | Previous Version | Text Only | Print | Product List | Glossary Off
Versions: 1 2 3 4 5 6 7 8 9 10 11 12 13 14 15 16 17 18 19 20 21 22 23 24 25 26 27 28 29 30 31 32 33 34 35 36 37 38 39 40 41 42 43 44 45 46 47 48 49 50

006
ASUS43 KFGF 191910
RWRFGF
PRAIRIE TO PINES  WEATHER ROUNDUP
NATIONAL WEATHER SERVICE EASTERN NORTH DAKOTA/GRAND FORKS ND
200 PM CDT THU APR 19 2018

 **SATELLITE DATA USED TO AUGMENT SKY COVER AT AUTOMATED STATIONS**
 *****  WEATHER ACROSS EASTERN NORTH DAKOTA  *****

CITY           SKY/WX    TMP DP  RH WIND       PRES   REMARKS
GRAND FORKS    FAIR      54  29  38 CALM      30.40F
GRAND FRKS AFB FAIR      56  31  38 SW9       30.40F
GRAND FRKS NWS   N/A     56  29  36 SW6       30.38F
DEVILS LAKE    FAIR      49  33  54 SW8       30.41F
FARGO          FAIR      54  26  34 W10       30.42F
WAHPETON ARPT  FAIR      52  32  46 S7        30.44F
$$

 ***** WEATHER ACROSS CENTRAL AND WESTERN NORTH DAKOTA  *****

CITY           SKY/WX    TMP DP  RH WIND       PRES   REMARKS
BISMARCK       FAIR      52  32  46 E7        30.39F
MINOT          CLOUDY    44  33  65 CALM      30.40F
JAMESTOWN      FAIR      54  31  41 N7        30.39F
MINOT AFB      CLOUDY    43  34  71 W3        30.39F
GARRISON         N/A     44  34  67 NE5       30.39F
WILLISTON      FAIR      50  37  61 E9        30.36F
DICKINSON      FAIR      54  28  36 VRB6      30.30F
HETTINGER      FAIR      54  29  38 SE10      30.32F
$$

 *****  OTHER AIRPORT OBSERVATIONS IN OUR AREA  *****

CITY           SKY/WX    TMP DP  RH WIND       PRES   REMARKS
WALHALLA       FAIR      54  28  37 VRB3      30.39F
GRAFTON AIRPOR FAIR      57  25  28 CALM      30.41F
VALLEY CITY AR FAIR      48  30  49 CALM      30.43F
CANDO          MOCLDY    52  36  54 W7G13     30.41F
CAVALIER APRT    N/A     55  30  38 CALM      30.39F
GWINNER          N/A     54  34  47 W6        30.42F
SHEYENNE NWR     N/A     56  29  36 S5        29.95S
ROLLA          FAIR      46  39  76 S10       30.38F
 ***** THE ABOVE OBSERVATIONS ARE NON NWS ARE NOT QUALITY
       CONTROLLED AND MAY MIS-REPORT RAIN FOR SNOW...
$$

  *****  WEATHER ACROSS NORTHERN MINNESOTA  *****

CITY           SKY/WX    TMP DP  RH WIND       PRES   REMARKS
FLAG ISLAND    FAIR      36  27  69 S7        30.40S
WARROAD        FAIR      54  19  26 SE6       30.40F
ROSEAU         FAIR      54  27  35 SW3       30.40F
HALLOCK        FAIR      55  28  35 SW3       30.40F
THF RVR FALLS  FAIR      52  15  23 W3        30.42F
BAUDETTE       FAIR      52  15  23 NE5       30.40S
WASKISH        PTSUNNY   54  14  20 W6        30.41F
CROOKSTON      FAIR      52  19  28 W3        30.43S
$$
  *****  WEATHER ACROSS CENTRAL AND WEST MINNESOTA  *****

CITY           SKY/WX    TMP DP  RH WIND       PRES   REMARKS
FOSSTON        FAIR      54  18  24 S3        30.42S
BEMIDJI        FAIR      53  15  22 W6        30.40F
PARK RAPIDS    FAIR      51  16  24 SW3       30.41F
ELBOW LAKE     FAIR      51  33  49 SW3       30.45F
WADENA         FAIR      48  28  46 SW7       30.43F
DETROIT LAKES  FAIR      52  25  35 W9        30.43F
MOORHEAD       FAIR      54  25  32 SW3       30.44S
FERGUS FALLS   FAIR      52  32  46 W7        30.42F
MORRIS MN      FAIR      50  36  57 SW10      30.45F
STAPLES        FAIR      48  16  27 NW7       30.44S
$$
  *****  WEATHER ELSEWHERE ACROSS MINNESOTA  *****

CITY           SKY/WX    TMP DP  RH WIND       PRES   REMARKS
DULUTH         FAIR      51  14  22 NW8       30.40S
INTRNTL FALLS  FAIR      52  11  19 VRB5      30.39F
ELY            FAIR      48   7  18 W5        30.39S
CLOQUET        FAIR      52  10  19 W6        30.41S
WHEATON        FAIR      54  32  43 NW7       30.46F
BRAINERD       FAIR      53  15  22 W9        30.44S
HIBBING        FAIR      50  14  23 NW3       30.40F
ALEXANDRIA     FAIR      53  28  38 S8        30.45F
SAINT CLOUD    FAIR      52  23  32 W8        30.46S
MINNEAPOLIS    FAIR      49  19  30 W9        30.48S
$$

  *****  WEATHER ACROSS SOUTH DAKOTA  *****

CITY           SKY/WX    TMP DP  RH WIND       PRES   REMARKS
SIOUX FALLS    FAIR      44  26  49 W3        30.48F
BROOKINGS      FAIR      47  21  35 S9        30.47F
WATERTOWN      FAIR      48  28  46 VRB7      30.44F
HURON          FAIR      43  29  57 S10       30.46F
SISSETON         N/A     53  30  41 W9        30.43F
ABERDEEN       FAIR      55  31  39 SW8       30.42F
MITCHELL       FAIR      44  33  65 CALM      30.48F
PIERRE         FAIR      50  31  48 S12       30.38F
MOBRIDGE       FAIR      53  27  36 S10       30.36F
RAPID CITY     FAIR      56  30  37 S17G26    30.27F
$$

  *****  SOME WEATHER IN NEARBY STATES *****

CITY           SKY/WX    TMP DP  RH WIND       PRES   REMARKS
GLASGOW MT     FAIR      51  38  60 E20       30.25F
GREAT FALLS MT FAIR      51  27  39 MISG      30.11F
CHEYENNE WY    FAIR      54  18  24 S25G35    30.16F
SCOTTSBLUFF NE FAIR      58  30  34 SE23G31   30.21F
OMAHA NE       FAIR      54  29  38 VRB3      30.47S
DES MOINES IA  FAIR      51  27  39 VRB7      30.48F
DAVENPORT IA   FAIR      51  29  42 N6G18     30.46R
CHICAGO IL     FAIR      52  27  38 N10       30.35R
EAU CLAIRE WI  FAIR      47  19  33 NW8       30.44S
LA CROSSE WI   FAIR      46  26  45 NW12      30.46S
$$

  *****  SOME NATIONAL WEATHER *****

CITY           SKY/WX    TMP DP  RH WIND       PRES   REMARKS
LA GUARDIA NY  RAIN      43  37  79 NW15      29.77R
RALEIGH NC     FAIR      71  41  33 NW13G30   29.87R
ATLANTA GA     FAIR      66  41  40 NW20      30.10R
NEW ORLEANS LA FAIR      75  53  46 N9        30.17F
OKLAHOMA CITY  PTSUNNY   60  30  32 N6        30.39F
ALBUQUERQUE NM PTSUNNY   68  15  13 SE15G23   30.13F
SALT LAKE CITY PTSUNNY   64  11  12 VRB6      29.80F
LOS ANGELES CA FAIR      59  44  57 W13       30.06S
BOISE ID       FAIR      63  30  28 NW18G24   29.92F
SEATTLE WA     FAIR      57  37  47 NE3       30.27S
$$

*** WEATHER ACROSS MANITOBA...SASKATCHEWAN AND ONTARIO ***
                ***ONTARIO***

CITY           SKY/WX    TMP DP  RH WIND       PRES   REMARKS
GERALDTON      SUNNY     45  14  29 NW13G20   30.30S
THUNDER BAY    MOSUNNY   55  16  21 NW12      30.35R
SIOUX LOOKOUT  PTSUNNY   50   9  18 NW12      30.35S
TORONTO        PTSUNNY   37  23  56 NW23      30.01R
BIG TROUT LK   SUNNY     50   9  18 NW7       30.28S
PICKLE LAKE    MOSUNNY   54   9  16 NW5       30.29F
DRYDEN         SUNNY     50   7  17 W8        30.36F
KENORA         PTSUNNY   50  10  20 S5G20     30.38F
$$
                *** MANITOBA***

CITY           SKY/WX    TMP DP  RH WIND       PRES   REMARKS
BRANDON        MOSUNNY   48  34  57 N6        30.40S
DAUPHIN        SUNNY     52  34  50 VRB2      30.40S
ISLAND LAKE    MOSUNNY   48  27  43 N5        30.34S
PILOT MOUND      N/A     48  34  57 S5          N/A
THE PAS        MOSUNNY   46  25  42 SE10      30.35F
THOMPSON       MOSUNNY   48  21  34 S8        30.32F
WINNIPEG       MOSUNNY   55  23  28 VRB2      30.39F
LYNN LAKE      SUNNY     48  23  37 S14G21    30.22F
CHURCHILL      SUNNY     36  27  69 N12       30.30R
GILLAM         SUNNY     45  23  42 NW7       30.33S
$$
                ***SASKATCHEWAN***

CITY           SKY/WX    TMP DP  RH WIND       PRES   REMARKS
ESTEVAN        MOSUNNY   48  32  53 SE8       30.38F
KINDERSLEY     MOSUNNY   50  39  66 SE12      30.22F
LLOYDMINSTER   MOSUNNY   48  32  53 S13       30.20F
PRINCE ALBERT  MOSUNNY   43  27  52 S7        30.32F
REGINA         MOSUNNY   37  34  87 SE14      30.37F
YORKTON        SUNNY     41  28  60 VRB2      30.40S
N. BATTLEFORD  SUNNY     48  34  57 S7        30.27F
LA RONGE       SUNNY     54  21  28 S8        30.23F
SASKATOON      MOSUNNY   54  30  40 S15G22    30.31F
SWIFT CURRENT  SUNNY     50  34  53 SE17      30.24F
$$
NOTE: THESE ARE AUTOMATED STATIONS WITH LIMITED QUALITY CONTROL
      "FAIR" INDICATES FEW OR NO CLOUDS BELOW 12,000 FEET WITH NO
      SIGNIFICANT WEATHER AND/OR OBSTRUCTIONS TO VISIBILITY.
      SKY/WX - SKY CONDITION AND SIGNIFICANT WEATHER.
      TMP - AIR TEMPERATURE.    DP   - DEWPOINT TEMPERATURE.
      RH  - RELATIVE HUMIDITY.  PRES - PRESSURE.
      HX  - HEAT INDEX.         WCI  - WIND CHILL INDEX.
$




USA.gov is the U.S. government's official web portal to all federal, state and local government web resources and services.